Weather History for Hammond, LA

Change the Weather History Date:

Monday, December 9, 2013

  Actual Average (KMSY) Record (KMSY)
Temperature  
Mean Temperature 52 °F -  
Max Temperature 55 °F 66 °F 82 °F (1980)
Min Temperature 48 °F 47 °F 29 °F (1973)
Degree Days  
Heating Degree Days 14    
Growing Degree Days 2 (Base 50)    
Moisture  
Dew Point 48 °F    
Average Humidity 91    
Maximum Humidity 94    
Minimum Humidity 82    
Precipitation  
Precipitation 0.07 in - - ()
Sea Level Pressure  
Sea Level Pressure 30.11 in    
Wind  
Wind Speed 4 mph (North)    
Max Wind Speed 10 mph    
Max Gust Speed -    
Visibility 7 miles    
Events Rain , Thunderstorm    
Averages and records for this station are not official NWS values.
T = Trace of Precipitation, MM = Missing Value Source: NWS Daily Summary

Daily Weather History Graph

Daily Weather History Graph

Search for Another Location

Airport:

Trip Planner

Search our weather history database for the weather conditions in past years. The results will help you decide how hot, cold, wet, or windy it might be!

Date:

Astronomy

Dec. 09, 2013 Rise Set
Actual Time 6:47 AM CST 5:00 PM CST
Civil Twilight 6:20 AM CST 5:27 PM CST
Nautical Twilight 5:51 AM CST 5:57 PM CST
Astronomical Twilight 5:21 AM CST 6:26 PM CST
Moon 12:04 PM CST (12/9) No Moon Set
Length of Visible Light 11h 06m
Length of Day
10h 13m
Waxing Crescent, 51% of the Moon is Illuminated
Dec 9
Waxing Crescent
Dec 17
Full
Dec 25
Last Quarter
Jan 1
New
Jan 7
First Quarter

Hourly Weather History & Observations

Time (CST) Temp. Dew Point Humidity Pressure Visibility Wind Dir Wind Speed Gust Speed Precip Events Conditions
12:15 AM 50.0 °F 48.2 °F 94% 30.10 in 7.0 mi Calm Calm - 0.04 in   Heavy Drizzle
12:35 AM 50.0 °F 48.2 °F 94% 30.09 in 7.0 mi NNW 5.8 mph - 0.05 in   Light Drizzle
12:55 AM 50.0 °F 48.2 °F 94% 30.10 in 10.0 mi NW 4.6 mph - 0.06 in   Overcast
1:15 AM 50.0 °F 48.2 °F 94% 30.10 in 10.0 mi NNW 6.9 mph - N/A Thunderstorm Thunderstorm
1:35 AM 50.0 °F 48.2 °F 94% 30.09 in 10.0 mi North 5.8 mph - N/A Thunderstorm Overcast
1:55 AM 50.0 °F 46.4 °F 87% 30.10 in 10.0 mi North 3.5 mph - N/A   Overcast
2:15 AM 50.0 °F 46.4 °F 87% 30.10 in 10.0 mi NNW 4.6 mph - N/A   Overcast
2:35 AM 48.2 °F 46.4 °F 93% 30.12 in 10.0 mi NW 4.6 mph - N/A   Overcast
2:55 AM 48.2 °F 46.4 °F 93% 30.11 in 10.0 mi NNW 6.9 mph - N/A   Overcast
3:15 AM 48.2 °F 46.4 °F 93% 30.11 in 10.0 mi North 4.6 mph - N/A   Overcast
3:35 AM 48.2 °F 46.4 °F 93% 30.11 in 7.0 mi Calm Calm - N/A   Overcast
3:55 AM 48.2 °F 46.4 °F 93% 30.10 in 7.0 mi North 4.6 mph - N/A   Overcast
4:35 AM 48.2 °F 46.4 °F 93% 30.11 in 7.0 mi Calm Calm - N/A   Drizzle
4:55 AM 50.0 °F 46.4 °F 87% 30.11 in 5.0 mi Calm Calm - 0.01 in   Drizzle
5:15 AM 50.0 °F 46.4 °F 87% 30.11 in 10.0 mi NNE 3.5 mph - N/A   Light Drizzle
5:35 AM 50.0 °F 48.2 °F 94% 30.10 in 10.0 mi North 4.6 mph - N/A   Light Drizzle
5:55 AM 50.0 °F 48.2 °F 94% 30.11 in 10.0 mi North 3.5 mph - N/A   Overcast
6:15 AM 50.0 °F 48.2 °F 94% 30.11 in 10.0 mi North 5.8 mph - N/A   Overcast
6:35 AM 50.0 °F 48.2 °F 94% 30.11 in 10.0 mi Calm Calm - N/A   Overcast
6:55 AM 50.0 °F 48.2 °F 94% 30.13 in 10.0 mi North 4.6 mph - N/A   Overcast
7:15 AM 50.0 °F 48.2 °F 94% 30.14 in 10.0 mi North 3.5 mph - N/A   Overcast
7:35 AM 50.0 °F 48.2 °F 94% 30.14 in 10.0 mi Calm Calm - N/A   Overcast
7:55 AM 50.0 °F 48.2 °F 94% 30.15 in 10.0 mi North 3.5 mph - N/A   Overcast
8:15 AM 50.0 °F 48.2 °F 94% 30.15 in 7.0 mi North 5.8 mph - N/A   Light Drizzle
8:35 AM 51.8 °F 48.2 °F 88% 30.16 in 10.0 mi North 5.8 mph - N/A   Overcast
8:55 AM 50.0 °F 48.2 °F 94% 30.17 in 10.0 mi NNE 4.6 mph - N/A   Overcast
9:15 AM 51.8 °F 48.2 °F 88% 30.17 in 10.0 mi NNE 3.5 mph - N/A   Overcast
9:35 AM 51.8 °F 48.2 °F 88% 30.16 in 10.0 mi NNE 4.6 mph - N/A   Overcast
9:55 AM 51.8 °F 48.2 °F 88% 30.16 in 10.0 mi NNE 3.5 mph - N/A   Overcast
10:15 AM 51.8 °F 48.2 °F 88% 30.17 in 10.0 mi NNE 3.5 mph - N/A   Overcast
10:35 AM 53.6 °F 48.2 °F 82% 30.16 in 10.0 mi NE 4.6 mph - N/A   Overcast
10:55 AM 53.6 °F 50.0 °F 88% 30.16 in 10.0 mi NE 5.8 mph - N/A   Overcast
11:15 AM 53.6 °F 50.0 °F 88% 30.15 in 10.0 mi North 4.6 mph - N/A   Overcast
11:35 AM 53.6 °F 50.0 °F 88% 30.15 in 10.0 mi Calm Calm - N/A   Drizzle
11:55 AM 53.6 °F 50.0 °F 88% 30.13 in 5.0 mi NE 3.5 mph - N/A   Drizzle
12:15 PM 53.6 °F 50.0 °F 88% 30.13 in 10.0 mi Calm Calm - N/A   Overcast
12:35 PM 53.6 °F 50.0 °F 88% 30.12 in 10.0 mi Calm Calm - N/A   Overcast
12:55 PM 53.6 °F 50.0 °F 88% 30.11 in 10.0 mi Calm Calm - N/A   Light Drizzle
1:15 PM 53.6 °F 50.0 °F 88% 30.10 in 10.0 mi North 5.8 mph - N/A   Overcast
1:35 PM 55.4 °F 51.8 °F 88% 30.09 in 10.0 mi North 5.8 mph - N/A   Overcast
1:55 PM 53.6 °F 50.0 °F 88% 30.08 in 7.0 mi North 8.1 mph - N/A   Overcast
2:15 PM 53.6 °F 50.0 °F 88% 30.08 in 4.0 mi North 8.1 mph - N/A   Overcast
2:35 PM 53.6 °F 50.0 °F 88% 30.09 in 7.0 mi North 6.9 mph - N/A   Overcast
2:55 PM 53.6 °F 50.0 °F 88% 30.09 in 10.0 mi North 5.8 mph - N/A   Overcast
3:15 PM 53.6 °F 50.0 °F 88% 30.09 in 10.0 mi North 4.6 mph - N/A   Overcast
3:35 PM 53.6 °F 50.0 °F 88% 30.09 in 7.0 mi North 5.8 mph - N/A   Overcast
3:55 PM 53.6 °F 50.0 °F 88% 30.09 in 10.0 mi North 6.9 mph - N/A   Overcast
4:15 PM 51.8 °F 48.2 °F 88% 30.09 in 7.0 mi North 6.9 mph - N/A Rain Rain
4:35 PM 51.8 °F 48.2 °F 88% 30.09 in 7.0 mi North 4.6 mph - N/A   Overcast
4:55 PM 51.8 °F 48.2 °F 88% 30.09 in 10.0 mi NNE 4.6 mph - N/A   Overcast
5:15 PM 50.0 °F 48.2 °F 94% 30.09 in 10.0 mi North 4.6 mph - N/A   Overcast
5:35 PM 50.0 °F 48.2 °F 94% 30.09 in 10.0 mi Calm Calm - N/A   Overcast
5:55 PM 50.0 °F 48.2 °F 94% 30.09 in 10.0 mi Calm Calm - N/A   Overcast
6:15 PM 50.0 °F 48.2 °F 94% 30.09 in 5.0 mi Calm Calm - N/A   Overcast
6:35 PM 50.0 °F 48.2 °F 94% 30.10 in 5.0 mi Calm Calm - N/A   Overcast
6:55 PM 50.0 °F 48.2 °F 94% 30.10 in 3.0 mi Calm Calm - N/A   Overcast
7:15 PM 50.0 °F 48.2 °F 94% 30.10 in 2.5 mi North 3.5 mph - N/A   Overcast
7:35 PM 50.0 °F 48.2 °F 94% 30.10 in 2.5 mi Calm Calm - N/A   Overcast
7:55 PM 50.0 °F 48.2 °F 94% 30.10 in 2.5 mi Calm Calm - N/A   Overcast
8:15 PM 50.0 °F 48.2 °F 94% 30.10 in 2.0 mi Calm Calm - N/A   Overcast
8:35 PM 50.0 °F 48.2 °F 94% 30.09 in 1.8 mi East 3.5 mph - N/A   Overcast
8:55 PM 51.8 °F 48.2 °F 88% 30.09 in 1.5 mi Calm Calm - N/A   Overcast
9:15 PM 51.8 °F 50.0 °F 94% 30.08 in 2.0 mi Calm Calm - N/A   Overcast
9:35 PM 51.8 °F 50.0 °F 94% 30.10 in 2.5 mi NW 5.8 mph - N/A   Overcast
9:55 PM 51.8 °F 50.0 °F 94% 30.10 in 2.0 mi NW 4.6 mph - N/A   Overcast
10:15 PM 51.8 °F 48.2 °F 88% 30.12 in 1.8 mi NW 8.1 mph - N/A   Overcast
10:35 PM 51.8 °F 48.2 °F 88% 30.11 in 1.5 mi NW 6.9 mph - N/A   Overcast
10:55 PM 50.0 °F 48.2 °F 94% 30.11 in 1.5 mi NNW 5.8 mph - N/A   Overcast
11:15 PM 50.0 °F 48.2 °F 94% 30.11 in 2.0 mi NNW 5.8 mph - N/A   Overcast
11:35 PM 50.0 °F 48.2 °F 94% 30.12 in 2.5 mi NW 8.1 mph - N/A   Overcast
11:55 PM 50.0 °F 48.2 °F 94% 30.13 in 2.5 mi NW 10.4 mph - N/A   Overcast